S-NET D

Last updated on Sun Jun 21 2026 00:03:22 GMT+0000 (Coordinated Universal Time)

1 43186U 18014G 26171.29880828 .00004087 00000+0 21192-3 0 9994 2 43186 97.5356 76.0698 0008631 20.4965 339.6613 15.16696846459235
UTC large
Height (km)
Speed (km/s)
/
Latitude / Longitude
Inclination (degrees)
Orbital Period (minutes)
Azimuth
Elevation
Range (km)
Doppler Factor

Next 0 passes for location: London (51.5072 / 0.1276)

No passes found over London.
S-NET D